Location: Kott?ru
(16.6209°N, 80.6208°E)
Time: 17:01:39
(UTC+00:00)

OAO 3 Copernicus - Pass Details

Date: 18 September 2020
Orbit: 694 x 705 km, 35.0° (Epoch: 20 October)

Event Time Altitude Azimuth Distance (km) Brightness Sun altitude
Rises 13:38:21 0° 307° (NW) 3,063 8.7 -15.5°
Reaches altitude 10° 13:40:47 10° 311° (NW) 2,147 7.7 -16.1°
Maximum altitude 13:45:45 59° 31° (NNE) 801 4.4 -17.3°
Enters shadow 13:47:49 33° 96° (E) 1,157 4.9 -17.8°
